Showing default

GOOD ANCESTOR KILAKILA, 64528

Orbit data source: Space-Track

GOOD ANCESTOR KILAKILA, 64528 is a Solomon Islander payload satellite in SSO that was launched on Mon, 23 Jun 2025 UTC via an FALCON 9 launch vehicle from the Air Force Western Test Range (AFWTR). Payload-class satellites include a variety of spacecraft equipped with specific instruments for various scientific and technological missions. These include communications satellites like Starlink; space stations such as the ISS; scientific satellites like the Hubble; Earth observation satellites from companies like Planet Labs, Umbra, and HawkEye 360; GPS; miniature CubeSats for education and research; and military/defense satellites.

Loading next visibility...
Identifier
64528, 2025-135A
Orbit
SSO
Country
Flag of SBSB / SLB
Related business
Manufacturer
GAF
Mission
Operational Amateur Communications
Bus & Motor
CUBESAT 2U, Unknown motor
Mass
2 kg wet, 2 kg dry
Launch date (UTC)
2025-06-23 (7 months ago)
Launch vehicle
FALCON 9
Launch site
Air Force Western Test Range (AFWTR)
Object type
Payload
Rocket body
Debris
Shape & HBR
Box, 0.1 m
Radar Cross Section
0.025 m², Small (<0.1 m²)

Expand to show TLE details & history
Last TLE update: 22 hours ago

TLE from 22 hours ago
0 GOOD ANCESTOR KILAKILA
1 64528U 25135A   26035.25229117  .00011746  00000-0  52389-3 0  9995
2 64528  97.4504 151.4554 0004227 294.9532  65.1264 15.21546064 34656
Epoch: 2026-02-04T06:03Z
TLE epoch observation values (Epoch: 2026-02-04T06:03:17.957Z)
Latitude
-0.00004°
Longitude
-73.79095°
Altitude
503.045 km
Speed
7.613 km/s
True Right ascension
10h 05m 49s
True Declination
0° 00' 00"
Sunlit
Object was in full shadow at epoch
Visualization orbit readout
Latitude
Unknown
Longitude
Unknown
Altitude
Unknown
Speed
Unknown
Apparent Right ascension
Unknown
Apparent Declination
Unknown
Sunlit
N/A
Visualization observer readout
Local Sidereal Time
06:20:59
Azimuth
Unknown
Elevation
Unknown
Doppler factor
Unknown
Orbital elements
Apogee altitude
501.049 km
Perigee altitude
495.236 km
Semi-major axis
6,876.279 km
Eccentricity
0.00042
Inclination
97.4504°
RAAN
151.4554°
Arg. of periapsis
294.9532°
True anomaly
65.17035°
Mean anomaly
65.1264°
Eccentric anomaly
65.14838°
Mean motion
3.80639 °/min
Orbital period
94.58 mins
BSTAR
0.00052389
Loading maneuver chart data...
Computing Atmospheric mass density...
Loading historical data...
Loading historical data...
Loading historical data...
Loading historical data...
Loading historical data...
Loading historical data...
Loading historical data...

Documentation

Showing up to 5 results
|